When you browse on this site, cookies collect data to enhance your experience and personalize the content and advertising you see.
Visit our Privacy Policy to learn more. By continuing to use the site, you agree to this use of cookies and data.
  • In Latvia
  • List of Countries
  • For 7 days
  • Water Temperature
  • Weather Map
  • Weather Widgets
  • user-avatar
    Login

    Hourly Weather Targyn

    Today, 9 April, Thursday

    Time Temperature Precipitation Wind Pressure Humidity
    00:00 +3°C° 0 mm 1 mps 703 mmHg 97%
    01:00 +3°C° 0.3 mm 1 mps 703 mmHg 97%
    02:00 +3°C° 0.3 mm 1 mps 702 mmHg 98%
    03:00 +1°C° 0.3 mm 2 mps 702 mmHg 98%
    04:00 +1°C° 0.4 mm 2 mps 702 mmHg 96%
    05:00 +1°C° 0.4 mm 2 mps 702 mmHg 95%
    06:00 +1°C° 0.4 mm 2 mps 702 mmHg 94%
    07:00 +1°C° 0.8 mm 2 mps 702 mmHg 95%
    08:00 +1°C° 0.8 mm 2 mps 702 mmHg 96%
    09:00 0°C° 0.8 mm 3 mps 703 mmHg 97%
    10:00 0°C° 1.3 mm 3 mps 703 mmHg 97%
    11:00 0°C° 1.3 mm 3 mps 704 mmHg 97%
    12:00 0°C° 1.3 mm 3 mps 704 mmHg 98%
    13:00 0°C° 1.2 mm 3 mps 705 mmHg 98%
    14:00 -1°C° 1.2 mm 4 mps 705 mmHg 98%
    15:00 -1°C° 1.2 mm 4 mps 706 mmHg 98%
    16:00 -2°C° 0.6 mm 4 mps 707 mmHg 98%
    17:00 -2°C° 0.6 mm 5 mps 707 mmHg 97%
    18:00 -2°C° 0.6 mm 5 mps 708 mmHg 96%
    19:00 -2°C° 0.4 mm 4 mps 709 mmHg 96%
    20:00 -3°C° 0.4 mm 4 mps 710 mmHg 96%
    21:00 -3°C° 0.4 mm 4 mps 710 mmHg 96%
    22:00 -2°C° 0.2 mm 3 mps 711 mmHg 96%
    23:00 -2°C° 0.2 mm 2 mps 712 mmHg 96%

    Tomorrow, 10 April, Friday

    Time Temperature Precipitation Wind Pressure Humidity
    00:00 -2°C° 0.2 mm 2 mps 712 mmHg 96%
    01:00 -1°C° 0 mm 1 mps 712 mmHg 95%
    02:00 -2°C° 0 mm 1 mps 712 mmHg 94%
    03:00 -2°C° 0 mm 1 mps 712 mmHg 92%
    04:00 -3°C° 0 mm 1 mps 712 mmHg 91%
    05:00 -3°C° 0 mm 1 mps 712 mmHg 89%
    06:00 -3°C° 0 mm 1 mps 713 mmHg 88%
    07:00 -2°C° 0 mm 1 mps 713 mmHg 87%
    08:00 0°C° 0 mm 1 mps 713 mmHg 87%
    09:00 0°C° 0 mm 0 mps 713 mmHg 87%
    10:00 +2°C° 0 mm 1 mps 713 mmHg 88%
    11:00 +2°C° 0 mm 1 mps 713 mmHg 89%
    12:00 +3°C° 0 mm 1 mps 712 mmHg 90%
    13:00 +3°C° 0 mm 1 mps 712 mmHg 89%
    14:00 +3°C° 0 mm 1 mps 711 mmHg 89%
    15:00 +3°C° 0 mm 1 mps 711 mmHg 88%
    16:00 +3°C° 0 mm 1 mps 711 mmHg 88%
    17:00 +3°C° 0 mm 1 mps 710 mmHg 89%
    18:00 +3°C° 0 mm 1 mps 710 mmHg 89%
    19:00 +1°C° 0 mm 1 mps 710 mmHg 86%
    20:00 0°C° 0 mm 1 mps 710 mmHg 83%
    21:00 -1°C° 0 mm 1 mps 710 mmHg 80%
    22:00 -1°C° 0 mm 1 mps 709 mmHg 76%
    23:00 -1°C° 0 mm 1 mps 709 mmHg 72%

    Day after tomorrow, 11 April, Saturday

    Time Temperature Precipitation Wind Pressure Humidity
    00:00 -1°C° 0 mm 1 mps 709 mmHg 68%
    01:00 -1°C° 0 mm 1 mps 709 mmHg 68%
    02:00 -1°C° 0 mm 1 mps 708 mmHg 69%
    03:00 -1°C° 0 mm 1 mps 708 mmHg 69%
    04:00 -1°C° 0 mm 1 mps 708 mmHg 70%
    05:00 -1°C° 0 mm 1 mps 708 mmHg 71%
    06:00 -1°C° 0 mm 1 mps 708 mmHg 71%
    07:00 +1°C° 0 mm 1 mps 708 mmHg 72%
    08:00 +2°C° 0 mm 1 mps 708 mmHg 73%
    09:00 +4°C° 0 mm 1 mps 708 mmHg 73%
    10:00 +4°C° 0 mm 1 mps 708 mmHg 72%
    11:00 +5°C° 0 mm 1 mps 708 mmHg 71%
    12:00 +6°C° 0 mm 1 mps 707 mmHg 69%
    13:00 +7°C° 0 mm 1 mps 707 mmHg 67%
    14:00 +7°C° 0 mm 1 mps 707 mmHg 65%
    15:00 +8°C° 0 mm 1 mps 706 mmHg 64%
    16:00 +7°C° 0 mm 1 mps 706 mmHg 66%
    17:00 +7°C° 0 mm 1 mps 706 mmHg 69%
    18:00 +6°C° 0 mm 1 mps 705 mmHg 72%
    19:00 +5°C° 0 mm 1 mps 705 mmHg 71%
    20:00 +5°C° 0 mm 1 mps 705 mmHg 70%
    21:00 +4°C° 0 mm 1 mps 705 mmHg 70%
    22:00 +4°C° 0 mm 1 mps 705 mmHg 68%
    23:00 +4°C° 0 mm 1 mps 705 mmHg 66%

    12 April, Sunday

    Time Temperature Precipitation Wind Pressure Humidity
    00:00 +3°C° 0 mm 1 mps 705 mmHg 65%
    01:00 +3°C° 0 mm 1 mps 704 mmHg 64%
    02:00 +3°C° 0 mm 1 mps 704 mmHg 64%
    03:00 +3°C° 0 mm 1 mps 703 mmHg 64%
    04:00 +3°C° 0 mm 1 mps 703 mmHg 64%
    05:00 +2°C° 0 mm 0 mps 703 mmHg 65%
    06:00 +2°C° 0 mm 0 mps 704 mmHg 66%
    07:00 +4°C° 0 mm 0 mps 704 mmHg 64%
    08:00 +6°C° 0 mm 0 mps 704 mmHg 63%
    09:00 +7°C° 0 mm 0 mps 704 mmHg 61%
    10:00 +9°C° 0 mm 1 mps 704 mmHg 60%
    11:00 +10°C° 0 mm 1 mps 703 mmHg 58%
    12:00 +11°C° 0 mm 1 mps 703 mmHg 57%
    13:00 +12°C° 0 mm 1 mps 703 mmHg 56%
    14:00 +12°C° 0 mm 1 mps 703 mmHg 56%
    15:00 +13°C° 0 mm 1 mps 702 mmHg 55%
    16:00 +12°C° 0 mm 1 mps 702 mmHg 57%
    17:00 +11°C° 0 mm 1 mps 701 mmHg 58%
    18:00 +11°C° 0 mm 1 mps 701 mmHg 60%
    19:00 +10°C° 0 mm 1 mps 701 mmHg 60%
    20:00 +9°C° 0 mm 1 mps 701 mmHg 60%
    21:00 +7°C° 0 mm 1 mps 700 mmHg 60%
    22:00 +7°C° 0 mm 1 mps 700 mmHg 59%
    23:00 +7°C° 0 mm 1 mps 700 mmHg 59%

    13 April, Monday

    Time Temperature Precipitation Wind Pressure Humidity
    00:00 +7°C° 0 mm 1 mps 700 mmHg 59%
    01:00 +7°C° 0 mm 1 mps 700 mmHg 60%
    02:00 +7°C° 0 mm 1 mps 699 mmHg 61%
    03:00 +6°C° 0 mm 2 mps 699 mmHg 61%
    04:00 +6°C° 0 mm 2 mps 699 mmHg 61%
    05:00 +6°C° 0 mm 2 mps 699 mmHg 60%
    06:00 +6°C° 0 mm 2 mps 699 mmHg 59%
    07:00 +7°C° 0 mm 2 mps 699 mmHg 59%
    08:00 +9°C° 0 mm 2 mps 699 mmHg 60%
    09:00 +10°C° 0 mm 2 mps 699 mmHg 60%
    10:00 +12°C° 0 mm 2 mps 699 mmHg 57%
    11:00 +13°C° 0 mm 2 mps 699 mmHg 55%
    12:00 +14°C° 0 mm 2 mps 699 mmHg 52%
    13:00 +14°C° 0 mm 2 mps 699 mmHg 53%
    14:00 +15°C° 0 mm 2 mps 699 mmHg 54%
    15:00 +15°C° 0 mm 2 mps 699 mmHg 54%
    16:00 +14°C° 0 mm 2 mps 699 mmHg 58%
    17:00 +14°C° 0 mm 1 mps 698 mmHg 62%
    18:00 +13°C° 0 mm 1 mps 698 mmHg 66%
    19:00 +12°C° 0.1 mm 1 mps 698 mmHg 70%
    20:00 +11°C° 0.1 mm 1 mps 698 mmHg 74%
    21:00 +11°C° 0.1 mm 1 mps 698 mmHg 78%
    22:00 +10°C° 0.2 mm 1 mps 698 mmHg 81%
    23:00 +9°C° 0.2 mm 2 mps 698 mmHg 84%

    14 April, Tuesday

    Time Temperature Precipitation Wind Pressure Humidity
    00:00 +9°C° 0.2 mm 2 mps 698 mmHg 87%
    01:00 +9°C° 0 mm 2 mps 698 mmHg 88%
    02:00 +9°C° 0 mm 2 mps 698 mmHg 90%
    03:00 +8°C° 0 mm 2 mps 698 mmHg 92%
    04:00 +8°C° 0.2 mm 2 mps 698 mmHg 93%
    05:00 +8°C° 0.2 mm 2 mps 699 mmHg 95%
    06:00 +8°C° 0.2 mm 2 mps 699 mmHg 96%
    07:00 +8°C° 0 mm 2 mps 700 mmHg 96%
    08:00 +9°C° 0 mm 3 mps 700 mmHg 95%
    09:00 +9°C° 0 mm 3 mps 701 mmHg 95%
    10:00 +10°C° 0.1 mm 4 mps 701 mmHg 84%
    11:00 +10°C° 0.1 mm 5 mps 701 mmHg 74%
    12:00 +11°C° 0.1 mm 6 mps 702 mmHg 63%
    13:00 +11°C° 0 mm 6 mps 702 mmHg 61%
    14:00 +11°C° 0 mm 7 mps 703 mmHg 60%
    15:00 +11°C° 0 mm 7 mps 703 mmHg 58%
    16:00 +10°C° 0.3 mm 7 mps 703 mmHg 62%
    17:00 +9°C° 0.3 mm 7 mps 704 mmHg 65%
    18:00 +8°C° 0.3 mm 7 mps 704 mmHg 69%
    19:00 +7°C° 0.1 mm 6 mps 705 mmHg 71%
    20:00 +5°C° 0.1 mm 5 mps 706 mmHg 74%
    21:00 +4°C° 0.1 mm 4 mps 707 mmHg 76%
    22:00 +3°C° 0 mm 3 mps 708 mmHg 76%
    23:00 +3°C° 0 mm 2 mps 708 mmHg 76%
    Show more